Regional Weather Roundup
Issued by NWS

Home | Current Version | Previous Version | Text Only | Print | Product List | Glossary On
Versions: 1 2 3 4 5 6 7 8 9 10 11 12 13 14 15 16 17 18 19 20 21 22 23 24 25 26 27 28 29 30 31 32 33 34 35 36 37 38 39 40 41 42 43 44 45 46 47 48 49 50
000
ASUS43 KMPX 010810
RWRMN
WEATHER ROUNDUP FOR MINNESOTA
NATIONAL WEATHER SERVICE TWIN CITIES/CHANHASSEN MN
300 AM CDT SUN MAY 01 2016


NOTE: "FAIR" INDICATES FEW OR NO CLOUDS BELOW 12,000 FEET WITH NO
SIGNIFICANT WEATHER AND/OR OBSTRUCTIONS TO VISIBILITY. N/A MEANS
CURRENT SKY AND/OR WEATHER CONDITIONS ARE NOT AVAILABLE.

MNZ060>063-068>070-010900-
   Twin Cities Metro

CITY           SKY/WX    TMP DP  RH WIND       PRES   REMARKS
TWIN CITIES    CLOUDY    44  32  62 NE6       30.13R
ST PAUL        CLOUDY    44  32  62 N5        30.13S
CRYSTAL        CLOUDY    43  31  62 NE7       30.12S
BLAINE         CLOUDY    43  34  70 N8        30.13S
EDEN PRAIRIE   CLOUDY    45  31  58 N6        30.11S
SOUTH ST PAUL  CLOUDY    45  32  60 N6        30.12S
LAKE ELMO      FAIR      43  34  70 NE7       30.12S
$$
MNZ001>005-007-008-013>017-022>024-027-028-010900-
   Northwest Minnesota

CITY           SKY/WX    TMP DP  RH WIND       PRES   REMARKS
BEMIDJI        CLEAR     36  30  77 SE3       30.25S
HALLOCK        CLEAR     37  27  65 N8        30.28F
ROSEAU         CLEAR     36  28  75 CALM      30.28S
WARROAD        CLEAR     41  32  70 N5        30.28S
THIEF RVR FALL CLEAR     39  25  56 N8        30.27S
CROOKSTON      CLEAR     43  28  56 E6        30.26F
FOSSTON        CLEAR     34  25  69 E3        30.25S
DETROIT LAKES  CLEAR     41  30  65 E3        30.25S
MOORHEAD       CLEAR     36  28  75 CALM      30.25S
PARK RAPIDS    CLEAR     39  27  62 N5        30.23S
MAHNOMEN       FAIR      34  29  82 CALM      30.24S
$$
MNZ006-009>011-018-025>026-010900-
   North Central Minnesota

CITY           SKY/WX    TMP DP  RH WIND       PRES   REMARKS
BAUDETTE       CLEAR     38  26  62 CALM      30.26S
FLAG ISLAND    CLEAR     43  36  75 N3        30.28S
INTL FALLS     CLEAR     34  28  79 E5        30.27R WCI  30
WASKISH        CLEAR     37  32  81 CALM      30.26R
BIG FORK       CLEAR     28  27  93 CALM      30.25S
LONGVILLE      CLEAR     30  27  86 CALM      30.23S
GRAND RAPIDS   CLEAR     28  21  74 CALM      30.24S
CRANE LAKE     CLEAR     27  25  93 CALM      30.29R
ORR            CLEAR     28  27  93 CALM      30.24R
COOK           CLEAR     27  27 100 CALM      30.25S
WALKER         FAIR      37  28  68 CALM      30.24S
$$
MNZ012-019>021-037-010900-
   Northeast Minnesota

CITY           SKY/WX    TMP DP  RH WIND       PRES   REMARKS
DULUTH         CLEAR     34  27  75 NE7       30.21S WCI  28
ELY            CLEAR     34  28  80 NE5       30.24F WCI  30
HIBBING        CLEAR     25  24  96 CALM      30.23S
EVELETH        CLEAR     28  27  93 CALM      30.25S
DULUTH HARBOR  CLEAR     39  34  81 NE14      30.23S
TWO HARBORS    CLEAR     37  28  70 N6        30.21S
SILVER BAY     CLEAR     28  27  93 CALM      30.21F
GRAND MARAIS     N/A     41  27  57 N8        30.24S
G MARAIS ARPRT CLEAR     28  21  74 N7        30.22F WCI  21
$$
MNZ029>031-032-039>041-046>048-054>057-064-010900-
   West Central Minnesota

CITY           SKY/WX    TMP DP  RH WIND       PRES   REMARKS
FERGUS FALLS   CLEAR     39  30  70 E7        30.21S
WHEATON        CLEAR     43  30  61 NE7       30.23R
MORRIS         CLOUDY    39  28  65 NE10      30.18R
ALEXANDRIA     CLEAR     38  26  62 NE8       30.19F
ELBOW LAKE     FAIR      40  30  67 NE7       30.21S
WADENA         CLEAR     36  27  69 N6        30.21F
GLENWOOD       CLOUDY    36  28  75 NE9       30.18S
APPLETON       CLOUDY    41  28  60 NE9       30.17R
BENSON         PTCLDY    41  27  56 E13       30.16S
ORTONVILLE     CLOUDY    39  30  70 NE9       30.18S
MADISON        CLOUDY    43  30  61 NE12      30.16S
WILLMAR        FAIR      43  30  61 NE13      30.16R
$$
MNZ033>034-036-042>043-049>051-058-059-010900-
   Central Minnesota

CITY           SKY/WX    TMP DP  RH WIND       PRES   REMARKS
ST CLOUD       CLOUDY    40  29  64 N6        30.16S
SAUK CENTRE    FAIR      38  28  68 NE8       30.18S
PAYNESVILLE    CLOUDY    39  29  67 NE9       30.16S
AITKIN         CLEAR     39  27  60 N5        30.20S
PINE RIVER     CLEAR     34  27  75 N5        30.25S WCI  30
BRAINERD       CLEAR     35  27  72 NE6       30.21S WCI  30
STAPLES        CLEAR     36  27  69 N5        30.21S
LONG PRAIRIE   FAIR      36  28  75 N6        30.19S
LITTLE FALLS   CLOUDY    37  28  70 CALM      30.19S
LITCHFIELD     CLOUDY    41  30  65 NE8       30.15S
BUFFALO        CLOUDY    41  31  67 N9        30.15S
MAPLE LAKE     CLOUDY    40  32  73 N8        30.16R
HUTCHINSON     CLEAR     42  32  67 NE12      30.14S
$$
MNZ037-044-045-052-053-010900-
   East Central Minnesota

CITY           SKY/WX    TMP DP  RH WIND       PRES   REMARKS
PRINCETON      MOCLDY    39  30  70 NE8       30.16S
MORA           PTCLDY    36  28  75 NE6       30.19S
CAMBRIDGE      MOCLDY    43  30  61 NE7       30.14S
RUSH CITY      CLOUDY    38  30  74 NE8       30.16S
MOOSE LAKE     CLOUDY    34  28  80 NE7       30.19S WCI  28
HINCKLEY       FAIR      36  32  87 N8        30.18S
CLOQUET        CLEAR     37  27  65 NE8       30.21S
MCGREGOR       CLEAR     36  30  80 NE5       30.22S
$$
MNZ071>073-080-081-089-090-097-098-010900-
   Southwest Minnesota

CITY           SKY/WX    TMP DP  RH WIND       PRES   REMARKS
MONTEVIDEO     PTCLDY    39  30  70 E8        30.17R
GRANITE FALLS  PTCLDY    42  32  67 N8        30.15S
CANBY          CLOUDY    45  35  70 N5        30.17R
MARSHALL       CLOUDY    42  33  70 NE8       30.14R
REDWOOD FALLS  CLOUDY    44  30  57 NE6       30.12S
OLIVIA         MOCLDY    39  30  70 NE9       30.13S
PIPESTONE      CLOUDY    43  37  81 NE7       30.10S
WINDOM         DRIZZLE   43  43 100 NE8       30.10S
WORTHINGTON    LGT RAIN  42  40  92 NE17      30.08S
JACKSON        LGT SNOW  43  41  93 NE20      30.07S
TRACY          LGT RAIN  43  39  87 E7        30.12S
SLAYTON        RAIN      41  41 100 NE8       30.11S
$$
MNZ065>067-074>077-082>085-091>093-010900-
   South Central Minnesota

CITY           SKY/WX    TMP DP  RH WIND       PRES   REMARKS
MANKATO        CLOUDY    45  36  70 NE7       30.10S
NEW ULM        CLOUDY    43  36  75 NE5       30.11S
ST JAMES       DRIZZLE   39  37  93 N8        30.11F
FAIRMONT       CLOUDY    43  36  75 NE12      30.07S
GLENCOE        MOCLDY    43  33  68 N6        30.12S
FARIBAULT      CLOUDY    43  41  93 VRB3      30.10S
OWATONNA       DRIZZLE   45  39  81 N6        30.09S
WASECA         CLOUDY    43  37  81 NE12      30.10S
ALBERT LEA     CLOUDY    43  43 100 NE10      30.06R
$$
MNZ078>079-086>088-094>096-010900-
   Southeast Minnesota

CITY           SKY/WX    TMP DP  RH WIND       PRES   REMARKS
ROCHESTER      CLOUDY    42  40  92 NE8       30.07S
RED WING       CLOUDY    46  36  66 NE3       30.09S
STANTON        CLOUDY    44  39  84 N3        30.09S
DODGE CENTER   CLOUDY    43  43 100 NE8       30.07S
WINONA         CLOUDY    43  41  93 N3        30.08R
AUSTIN         CLOUDY    43  37  81 E15G22    30.05R
PRESTON        CLOUDY    41  38  87 NE10      30.05S
$$
ABBREVIATIONS USED IN REMARKS
   TC - TEMPERATURES IN CELSIUS
  WCI - WIND CHILL INDEX
   HX - HEAT INDEX
  VSB - VISIBILITY
$$



USA.gov is the U.S. government's official web portal to all federal, state and local government web resources and services.